QFA989 YBMK-YBBN

Flight info

Callsign QFA989
Flight time 1h 17m
Altitude 39000
Route POONA DCT RUROX Y177 SMOKA
Aircraft B738/M-SDE2E3FGHIRWXY/LB1

Departure

Time 2026-05-07 10:08
Airport Mackay Airport (YBMK)

Arrival

Time 2026-05-07 11:25
Airport Brisbane International Airport (YBBN)
Time Latitude Longitude Altitude Speed Heading
2026-05-07 09:49 -21.17571 149.18250 26 ft 0 kts 289°
2026-05-07 10:02 -21.17567 149.18248 26 ft 1 kts 336°
2026-05-07 10:02 -21.17542 149.18246 29 ft 5 kts 354°
2026-05-07 10:03 -21.17507 149.18239 28 ft 6 kts 347°
2026-05-07 10:03 -21.17462 149.18242 27 ft 8 kts 23°
2026-05-07 10:03 -21.17416 149.18298 24 ft 12 kts 55°
2026-05-07 10:03 -21.17368 149.18381 25 ft 14 kts 56°
2026-05-07 10:04 -21.17279 149.18390 26 ft 14 kts 333°
2026-05-07 10:04 -21.17189 149.18331 24 ft 16 kts 325°
2026-05-07 10:04 -21.17095 149.18268 26 ft 16 kts 331°
2026-05-07 10:04 -21.16997 149.18207 29 ft 17 kts 328°
2026-05-07 10:05 -21.16898 149.18143 25 ft 17 kts 328°
2026-05-07 10:05 -21.16791 149.18073 22 ft 18 kts 328°
2026-05-07 10:05 -21.16685 149.18000 26 ft 18 kts 327°
2026-05-07 10:05 -21.16584 149.17928 29 ft 18 kts 326°
2026-05-07 10:06 -21.16477 149.17852 27 ft 19 kts 326°
2026-05-07 10:06 -21.16361 149.17792 28 ft 12 kts 336°
2026-05-07 10:06 -21.16341 149.17761 28 ft 1 kts 239°
2026-05-07 10:06 -21.16348 149.17763 27 ft 2 kts 154°
2026-05-07 10:07 -21.16356 149.17771 28 ft 3 kts 144°
2026-05-07 10:07 -21.16605 149.17942 27 ft 88 kts 148°
2026-05-07 10:07 -21.17372 149.18454 31 ft 168 kts 148°
2026-05-07 10:07 -21.18457 149.19217 439 ft 197 kts 142°
2026-05-07 10:08 -21.19457 149.20150 1600 ft 180 kts 136°
2026-05-07 10:08 -21.20526 149.20746 2658 ft 179 kts 166°
2026-05-07 10:08 -21.21793 149.21065 2966 ft 204 kts 163°
2026-05-07 10:08 -21.23222 149.21504 3317 ft 221 kts 162°
2026-05-07 10:09 -21.24710 149.21994 3913 ft 226 kts 162°
2026-05-07 10:09 -21.26225 149.22518 4598 ft 231 kts 161°
2026-05-07 10:09 -21.27766 149.23072 5248 ft 236 kts 160°
2026-05-07 10:09 -21.29355 149.23659 5771 ft 252 kts 160°
2026-05-07 10:10 -21.31060 149.24305 6353 ft 265 kts 160°
2026-05-07 10:10 -21.32815 149.24981 7103 ft 271 kts 160°
2026-05-07 10:10 -21.34607 149.25682 7886 ft 276 kts 160°
2026-05-07 10:10 -21.36425 149.26401 8654 ft 281 kts 160°
2026-05-07 10:11 -21.38276 149.27139 9435 ft 287 kts 160°
2026-05-07 10:11 -21.40161 149.27895 10182 ft 292 kts 160°
2026-05-07 10:11 -21.42116 149.28683 10565 ft 312 kts 161°
2026-05-07 10:11 -21.44228 149.29535 10810 ft 333 kts 161°
2026-05-07 10:12 -21.46430 149.30427 11328 ft 344 kts 161°
2026-05-07 10:12 -21.48692 149.31347 11937 ft 351 kts 162°
2026-05-07 10:12 -21.50996 149.32285 12550 ft 358 kts 162°
2026-05-07 10:12 -21.53344 149.33243 13141 ft 365 kts 162°
2026-05-07 10:13 -21.55744 149.34222 13723 ft 372 kts 163°
2026-05-07 10:13 -21.58189 149.35220 14267 ft 378 kts 163°
2026-05-07 10:13 -21.60659 149.36230 14865 ft 382 kts 163°
2026-05-07 10:13 -21.63149 149.37249 15506 ft 384 kts 163°
2026-05-07 10:14 -21.65622 149.38262 16111 ft 387 kts 163°
2026-05-07 10:14 -21.68152 149.39298 16705 ft 391 kts 163°
2026-05-07 10:14 -21.70707 149.40344 17307 ft 394 kts 164°
2026-05-07 10:14 -21.73282 149.41399 17896 ft 398 kts 164°
2026-05-07 10:15 -21.75881 149.42464 18468 ft 401 kts 164°
2026-05-07 10:15 -21.78503 149.43538 18955 ft 405 kts 164°
2026-05-07 10:15 -21.81146 149.44622 19437 ft 409 kts 164°
2026-05-07 10:15 -21.83816 149.45717 19948 ft 412 kts 163°
2026-05-07 10:16 -21.86508 149.46822 20415 ft 416 kts 163°
2026-05-07 10:16 -21.89229 149.47939 20903 ft 420 kts 163°
2026-05-07 10:16 -21.91964 149.49062 21392 ft 423 kts 164°
2026-05-07 10:16 -21.94725 149.50197 21878 ft 426 kts 164°
2026-05-07 10:17 -21.97511 149.51342 22348 ft 430 kts 164°
2026-05-07 10:17 -22.00318 149.52497 22803 ft 434 kts 163°
2026-05-07 10:17 -22.03149 149.53661 23260 ft 437 kts 163°
2026-05-07 10:17 -22.06000 149.54835 23702 ft 440 kts 163°
2026-05-07 10:18 -22.08873 149.56018 24074 ft 443 kts 164°
2026-05-07 10:18 -22.11762 149.57208 24458 ft 446 kts 164°
2026-05-07 10:18 -22.14665 149.58405 24847 ft 448 kts 164°
2026-05-07 10:18 -22.17582 149.59608 25246 ft 450 kts 165°
2026-05-07 10:19 -22.20516 149.60818 25612 ft 453 kts 165°
2026-05-07 10:19 -22.23468 149.62036 26003 ft 455 kts 165°
2026-05-07 10:19 -22.26436 149.63261 26382 ft 457 kts 165°
2026-05-07 10:19 -22.29415 149.64492 26750 ft 460 kts 166°
2026-05-07 10:20 -22.32411 149.65730 27096 ft 462 kts 166°
2026-05-07 10:20 -22.35423 149.66974 27445 ft 465 kts 166°
2026-05-07 10:20 -22.38453 149.68228 27793 ft 467 kts 166°
2026-05-07 10:20 -22.41498 149.69487 28131 ft 470 kts 166°
2026-05-07 10:21 -22.44555 149.70753 28469 ft 472 kts 166°
2026-05-07 10:21 -22.47632 149.72028 28800 ft 474 kts 166°
2026-05-07 10:21 -22.50719 149.73307 29114 ft 477 kts 166°
2026-05-07 10:21 -22.53822 149.74593 29455 ft 479 kts 167°
2026-05-07 10:22 -22.56945 149.75888 29746 ft 482 kts 167°
2026-05-07 10:22 -22.60046 149.77175 30045 ft 485 kts 167°
2026-05-07 10:22 -22.63197 149.78483 30324 ft 487 kts 167°
2026-05-07 10:22 -22.66368 149.79801 30563 ft 489 kts 167°
2026-05-07 10:23 -22.69552 149.81124 30778 ft 492 kts 167°
2026-05-07 10:23 -22.72756 149.82456 30989 ft 495 kts 167°
2026-05-07 10:23 -22.75984 149.83799 31207 ft 498 kts 167°
2026-05-07 10:23 -22.79219 149.85145 31424 ft 500 kts 167°
2026-05-07 10:24 -22.82481 149.86504 31634 ft 503 kts 167°
2026-05-07 10:24 -22.85755 149.87869 31864 ft 505 kts 167°
2026-05-07 10:24 -22.89040 149.89239 32108 ft 506 kts 167°
2026-05-07 10:24 -22.92328 149.90612 32414 ft 507 kts 167°
2026-05-07 10:25 -22.95617 149.91986 32704 ft 507 kts 168°
2026-05-07 10:25 -22.98908 149.93362 33007 ft 507 kts 168°
2026-05-07 10:25 -23.02196 149.94737 33318 ft 507 kts 168°
2026-05-07 10:25 -23.05487 149.96112 33552 ft 508 kts 168°
2026-05-07 10:26 -23.08794 149.97494 33744 ft 510 kts 168°
2026-05-07 10:26 -23.12113 149.98881 33991 ft 511 kts 168°
2026-05-07 10:26 -23.15431 150.00271 34300 ft 510 kts 168°
2026-05-07 10:26 -23.18739 150.01658 34550 ft 510 kts 168°
2026-05-07 10:27 -23.22051 150.03047 34797 ft 510 kts 168°
2026-05-07 10:27 -23.25355 150.04434 35025 ft 510 kts 168°
2026-05-07 10:27 -23.28666 150.05822 35253 ft 510 kts 168°
2026-05-07 10:27 -23.31977 150.07212 35439 ft 510 kts 168°
2026-05-07 10:28 -23.35288 150.08602 35667 ft 510 kts 168°
2026-05-07 10:28 -23.38597 150.09993 35937 ft 509 kts 168°
2026-05-07 10:28 -23.41891 150.11379 36171 ft 508 kts 169°
2026-05-07 10:28 -23.45192 150.12769 36424 ft 508 kts 169°
2026-05-07 10:29 -23.47379 150.13689 36576 ft 508 kts 169°
2026-05-07 10:29 -23.50668 150.15074 36815 ft 507 kts 169°
2026-05-07 10:29 -23.53961 150.16461 37007 ft 507 kts 169°
2026-05-07 10:30 -23.60562 150.19240 37167 ft 511 kts 169°
2026-05-07 10:30 -23.63872 150.20636 37183 ft 510 kts 169°
2026-05-07 10:30 -23.70469 150.23427 37177 ft 506 kts 169°
2026-05-07 10:31 -23.77009 150.26195 37204 ft 503 kts 169°
2026-05-07 10:31 -23.83519 150.28950 37188 ft 500 kts 169°
2026-05-07 10:32 -23.89993 150.31692 37202 ft 499 kts 169°
2026-05-07 10:32 -23.96476 150.34438 37192 ft 500 kts 169°
2026-05-07 10:33 -24.02964 150.37190 37203 ft 501 kts 169°
2026-05-07 10:33 -24.09488 150.39962 37202 ft 505 kts 169°
2026-05-07 10:34 -24.16047 150.42752 37203 ft 507 kts 169°
2026-05-07 10:34 -24.22595 150.45543 37205 ft 509 kts 169°
2026-05-07 10:35 -24.29208 150.48365 37209 ft 511 kts 169°
2026-05-07 10:35 -24.35880 150.51215 37244 ft 511 kts 169°
2026-05-07 10:36 -24.42468 150.54032 37214 ft 511 kts 169°
2026-05-07 10:36 -24.49079 150.56924 37204 ft 516 kts 165°
2026-05-07 10:37 -24.55313 150.61065 37221 ft 527 kts 155°
2026-05-07 10:37 -24.61406 150.65644 37218 ft 526 kts 154°
2026-05-07 10:38 -24.67449 150.70160 37209 ft 524 kts 155°
2026-05-07 10:38 -24.73462 150.74583 37219 ft 522 kts 155°
2026-05-07 10:39 -24.79506 150.79002 37217 ft 521 kts 155°
2026-05-07 10:39 -24.85546 150.83422 37214 ft 521 kts 155°
2026-05-07 10:40 -24.91577 150.87847 37231 ft 521 kts 155°
2026-05-07 10:40 -24.97612 150.92282 37224 ft 522 kts 155°
2026-05-07 10:41 -25.03668 150.96737 37215 ft 525 kts 155°
2026-05-07 10:41 -25.09745 151.01214 37210 ft 526 kts 155°
2026-05-07 10:42 -25.15832 151.05704 37214 ft 527 kts 155°
2026-05-07 10:42 -25.21927 151.10208 37213 ft 528 kts 155°
2026-05-07 10:43 -25.28032 151.14723 37209 ft 528 kts 155°
2026-05-07 10:43 -25.34142 151.19247 37229 ft 529 kts 155°
2026-05-07 10:44 -25.40259 151.23781 37222 ft 529 kts 155°
2026-05-07 10:44 -25.46370 151.28318 37213 ft 529 kts 155°
2026-05-07 10:45 -25.52473 151.32855 37209 ft 528 kts 155°
2026-05-07 10:45 -25.58562 151.37386 37213 ft 526 kts 155°
2026-05-07 10:46 -25.64633 151.41910 37242 ft 525 kts 155°
2026-05-07 10:46 -25.70694 151.46431 37211 ft 525 kts 155°
2026-05-07 10:47 -25.76607 151.51133 37206 ft 532 kts 148°
2026-05-07 10:47 -25.82158 151.56615 37212 ft 535 kts 145°
2026-05-07 10:48 -25.87663 151.62264 37206 ft 535 kts 145°
2026-05-07 10:48 -25.93135 151.67785 37212 ft 535 kts 146°
2026-05-07 10:49 -25.98710 151.73334 37233 ft 535 kts 146°
2026-05-07 10:49 -26.04223 151.78810 37212 ft 535 kts 146°
2026-05-07 10:50 -26.09774 151.84337 37202 ft 536 kts 146°
2026-05-07 10:50 -26.15325 151.89879 37205 ft 536 kts 146°
2026-05-07 10:51 -26.20877 151.95431 37219 ft 537 kts 146°
2026-05-07 10:51 -26.26440 152.01001 37202 ft 537 kts 146°
2026-05-07 10:52 -26.31993 152.06568 37204 ft 537 kts 146°
2026-05-07 10:52 -26.37543 152.12140 37209 ft 537 kts 146°
2026-05-07 10:53 -26.43095 152.17721 37210 ft 537 kts 146°
2026-05-07 10:53 -26.45884 152.20524 36808 ft 542 kts 146°
2026-05-07 10:53 -26.48668 152.23329 36521 ft 536 kts 146°
2026-05-07 10:54 -26.51421 152.26108 36115 ft 532 kts 146°
2026-05-07 10:54 -26.54154 152.28867 35726 ft 528 kts 146°
2026-05-07 10:54 -26.56867 152.31605 35343 ft 524 kts 146°
2026-05-07 10:54 -26.59565 152.34327 34955 ft 521 kts 146°
2026-05-07 10:55 -26.62241 152.37029 34572 ft 518 kts 146°
2026-05-07 10:55 -26.64906 152.39730 34165 ft 516 kts 146°
2026-05-07 10:55 -26.67544 152.42438 33777 ft 514 kts 145°
2026-05-07 10:55 -26.70163 152.45147 33314 ft 511 kts 145°
2026-05-07 10:56 -26.72765 152.47844 32913 ft 508 kts 144°
2026-05-07 10:56 -26.75353 152.50526 32512 ft 505 kts 144°
2026-05-07 10:56 -26.77924 152.53188 32126 ft 502 kts 144°
2026-05-07 10:56 -26.80479 152.55831 31730 ft 499 kts 144°
2026-05-07 10:57 -26.83026 152.58465 31354 ft 496 kts 144°
2026-05-07 10:57 -26.85551 152.61077 30976 ft 493 kts 144°
2026-05-07 10:57 -26.88063 152.63678 30573 ft 491 kts 144°
2026-05-07 10:57 -26.90538 152.66235 30190 ft 489 kts 144°
2026-05-07 10:58 -26.93013 152.68792 30138 ft 477 kts 144°
2026-05-07 10:58 -26.95446 152.71309 30106 ft 464 kts 144°
2026-05-07 10:58 -26.99762 152.76445 29946 ft 453 kts 129°
2026-05-07 10:59 -27.01409 152.79459 29562 ft 455 kts 118°
2026-05-07 10:59 -27.02689 152.82755 28792 ft 467 kts 112°
2026-05-07 10:59 -27.03851 152.86175 28174 ft 471 kts 111°
2026-05-07 10:59 -27.05021 152.89606 27767 ft 469 kts 112°
2026-05-07 11:00 -27.06215 152.92981 27496 ft 463 kts 113°
2026-05-07 11:00 -27.07374 152.96325 27196 ft 458 kts 109°
2026-05-07 11:00 -27.08192 152.99766 26847 ft 455 kts 102°
2026-05-07 11:00 -27.08862 153.03223 26511 ft 452 kts 101°
2026-05-07 11:01 -27.09530 153.06659 26117 ft 451 kts 102°
2026-05-07 11:01 -27.10222 153.10099 25607 ft 453 kts 102°
2026-05-07 11:01 -27.10734 153.13590 25103 ft 453 kts 91°
2026-05-07 11:01 -27.10856 153.17115 24637 ft 452 kts 89°
2026-05-07 11:02 -27.10986 153.20644 24168 ft 453 kts 89°
2026-05-07 11:02 -27.11027 153.24178 23707 ft 453 kts 88°
2026-05-07 11:02 -27.11034 153.27659 23138 ft 453 kts 87°
2026-05-07 11:02 -27.11032 153.31189 22596 ft 452 kts 87°
2026-05-07 11:03 -27.11018 153.34717 22063 ft 452 kts 87°
2026-05-07 11:03 -27.10993 153.38229 21538 ft 450 kts 87°
2026-05-07 11:03 -27.10807 153.41729 20996 ft 446 kts 76°
2026-05-07 11:03 -27.09828 153.44972 20489 ft 435 kts 57°
2026-05-07 11:04 -27.08080 153.47657 19989 ft 419 kts 38°
2026-05-07 11:04 -27.05792 153.49553 19501 ft 403 kts 20°
2026-05-07 11:04 -27.03213 153.50585 19014 ft 387 kts
2026-05-07 11:04 -27.00583 153.50773 18540 ft 373 kts 349°
2026-05-07 11:05 -26.98086 153.50200 18009 ft 362 kts 335°
2026-05-07 11:05 -26.95862 153.48968 17472 ft 353 kts 321°
2026-05-07 11:05 -26.94029 153.47200 16935 ft 345 kts 308°
2026-05-07 11:05 -26.92671 153.45039 16402 ft 333 kts 295°
2026-05-07 11:06 -26.91856 153.42669 15878 ft 321 kts 282°
2026-05-07 11:06 -26.91568 153.40226 15362 ft 313 kts 269°
2026-05-07 11:06 -26.91772 153.37837 14860 ft 306 kts 258°
2026-05-07 11:06 -26.92425 153.35592 14369 ft 301 kts 246°
2026-05-07 11:07 -26.93478 153.33570 13715 ft 303 kts 235°
2026-05-07 11:07 -26.94922 153.31826 12946 ft 308 kts 223°
2026-05-07 11:07 -26.96647 153.30391 12205 ft 312 kts 215°
2026-05-07 11:07 -26.98598 153.29294 11467 ft 318 kts 202°
2026-05-07 11:08 -27.00780 153.28778 10758 ft 323 kts 192°
2026-05-07 11:08 -27.03009 153.28445 10049 ft 324 kts 192°
2026-05-07 11:08 -27.05244 153.28130 9292 ft 324 kts 191°
2026-05-07 11:08 -27.07476 153.27815 8538 ft 323 kts 191°
2026-05-07 11:09 -27.09708 153.27497 7798 ft 322 kts 191°
2026-05-07 11:09 -27.11923 153.27178 7078 ft 320 kts 191°
2026-05-07 11:09 -27.14074 153.26776 6361 ft 314 kts 200°
2026-05-07 11:09 -27.16027 153.25757 5628 ft 307 kts 210°
2026-05-07 11:10 -27.17912 153.24641 4889 ft 305 kts 210°
2026-05-07 11:10 -27.19797 153.23547 4415 ft 293 kts 209°
2026-05-07 11:10 -27.21531 153.22558 4255 ft 273 kts 208°
2026-05-07 11:10 -27.23181 153.21640 4102 ft 256 kts 208°
2026-05-07 11:11 -27.24728 153.20760 3912 ft 243 kts 209°
2026-05-07 11:11 -27.26232 153.19893 3375 ft 244 kts 208°
2026-05-07 11:11 -27.27710 153.19042 3161 ft 232 kts 208°
2026-05-07 11:11 -27.29101 153.18243 3028 ft 217 kts 208°
2026-05-07 11:12 -27.30436 153.17474 2441 ft 222 kts 208°
2026-05-07 11:12 -27.31783 153.16699 2180 ft 208 kts 208°
2026-05-07 11:12 -27.33019 153.15989 2031 ft 192 kts 209°
2026-05-07 11:12 -27.34156 153.15335 1951 ft 180 kts 209°
2026-05-07 11:13 -27.35285 153.14627 1949 ft 187 kts 216°
2026-05-07 11:13 -27.36473 153.13998 1913 ft 201 kts 191°
2026-05-07 11:13 -27.37976 153.14293 1969 ft 235 kts 157°
2026-05-07 11:13 -27.39166 153.15616 2728 ft 252 kts 124°
2026-05-07 11:14 -27.39620 153.17537 3737 ft 263 kts 97°
2026-05-07 11:14 -27.39291 153.19562 3970 ft 270 kts 66°
2026-05-07 11:14 -27.38162 153.21262 4202 ft 276 kts 45°
2026-05-07 11:14 -27.36779 153.22754 4071 ft 271 kts 43°
2026-05-07 11:15 -27.35420 153.24158 3960 ft 260 kts 39°
2026-05-07 11:15 -27.33909 153.25214 3865 ft 253 kts 26°
2026-05-07 11:15 -27.32372 153.26117 3801 ft 246 kts 26°
2026-05-07 11:15 -27.30878 153.27002 3704 ft 239 kts 26°
2026-05-07 11:16 -27.29421 153.27865 3608 ft 235 kts 26°
2026-05-07 11:16 -27.28465 153.28428 3550 ft 233 kts 26°
2026-05-07 11:16 -27.27027 153.29276 3476 ft 234 kts 26°
2026-05-07 11:16 -27.25587 153.30127 3400 ft 234 kts 26°
2026-05-07 11:17 -27.24143 153.30977 3308 ft 234 kts 26°
2026-05-07 11:17 -27.22659 153.31710 3196 ft 232 kts
2026-05-07 11:17 -27.21128 153.31627 3066 ft 212 kts 332°
2026-05-07 11:17 -27.20022 153.30723 3030 ft 189 kts 303°
2026-05-07 11:18 -27.19286 153.29549 3002 ft 178 kts 281°
2026-05-07 11:18 -27.18975 153.28230 3029 ft 175 kts 276°
2026-05-07 11:18 -27.18710 153.26900 3016 ft 172 kts 268°
2026-05-07 11:18 -27.18968 153.25665 3025 ft 160 kts 238°
2026-05-07 11:19 -27.19524 153.24574 3021 ft 162 kts 236°
2026-05-07 11:19 -27.20159 153.23530 3009 ft 163 kts 221°
2026-05-07 11:19 -27.21125 153.22884 3021 ft 162 kts 210°
2026-05-07 11:19 -27.22101 153.22294 3000 ft 156 kts 210°
2026-05-07 11:20 -27.23043 153.21736 3001 ft 151 kts 209°
2026-05-07 11:20 -27.23989 153.21185 2911 ft 156 kts 209°
2026-05-07 11:20 -27.24963 153.20622 2721 ft 156 kts 209°
2026-05-07 11:20 -27.25922 153.20070 2510 ft 153 kts 209°
2026-05-07 11:21 -27.26855 153.19534 2305 ft 148 kts 209°
2026-05-07 11:21 -27.27730 153.19031 2121 ft 135 kts 209°
2026-05-07 11:21 -27.28533 153.18570 1968 ft 123 kts 210°
2026-05-07 11:21 -27.29274 153.18143 1820 ft 118 kts 210°
2026-05-07 11:22 -27.29992 153.17730 1638 ft 114 kts 211°
2026-05-07 11:22 -27.30721 153.17309 1481 ft 118 kts 209°
2026-05-07 11:22 -27.31448 153.16892 1322 ft 119 kts 210°
2026-05-07 11:22 -27.32185 153.16468 1165 ft 119 kts 210°
2026-05-07 11:23 -27.32930 153.16040 1003 ft 121 kts 212°
2026-05-07 11:23 -27.33691 153.15601 825 ft 127 kts 212°
2026-05-07 11:23 -27.34487 153.15143 697 ft 131 kts 210°
2026-05-07 11:23 -27.35298 153.14680 520 ft 131 kts 212°
2026-05-07 11:24 -27.36105 153.14214 346 ft 128 kts 211°
2026-05-07 11:24 -27.36910 153.13760 164 ft 132 kts 211°
2026-05-07 11:24 -27.37728 153.13293 35 ft 129 kts 211°
2026-05-07 11:24 -27.38432 153.12878 23 ft 96 kts 207°
2026-05-07 11:25 -27.38873 153.12614 21 ft 49 kts 216°
2026-05-07 11:25 -27.39061 153.12365 21 ft 14 kts 237°
2026-05-07 11:25 -27.39112 153.12278 20 ft 13 kts 232°
2026-05-07 11:25 -27.39185 153.12222 20 ft 13 kts 210°
2026-05-07 11:26 -27.39261 153.12173 21 ft 12 kts 205°
2026-05-07 11:26 -27.39340 153.12136 21 ft 12 kts 203°
2026-05-07 11:26 -27.39414 153.12096 21 ft 12 kts 209°
2026-05-07 11:26 -27.39483 153.12051 22 ft 11 kts 216°
2026-05-07 11:27 -27.39508 153.11972 21 ft 11 kts 278°
2026-05-07 11:27 -27.39449 153.11938 21 ft 11 kts 15°
2026-05-07 11:27 -27.39380 153.11969 22 ft 11 kts 24°
2026-05-07 11:27 -27.39314 153.12002 21 ft 10 kts 23°
2026-05-07 11:28 -27.39251 153.12038 22 ft 10 kts 40°
2026-05-07 11:28 -27.39196 153.12085 22 ft 10 kts 36°
2026-05-07 11:28 -27.39138 153.12124 20 ft 10 kts 27°
2026-05-07 11:28 -27.39074 153.12132 20 ft 9 kts 344°
2026-05-07 11:29 -27.39029 153.12082 20 ft 9 kts 302°
2026-05-07 11:29 -27.39002 153.12018 20 ft 9 kts 298°
2026-05-07 11:29 -27.38960 153.11969 20 ft 9 kts 327°
2026-05-07 11:29 -27.38905 153.11956 20 ft 4 kts 358°
2026-05-07 11:30 -27.38894 153.11956 20 ft 0 kts